W1NJC Weather Reports


time (UTC)temp
C
wind
direction
speed
KPH
gust
KPH
rain 1hr
cm
rain 24hr
cm
rain mn
cm
humidity
%
barometer
mb
20260502214503 10 0 0.0 0.0 0.00 0.33 0.33 92 1008.9
20260502213603 10 0 0.0 0.0 0.00 0.33 0.33 93 1008.8
20260502212724 10 0 0.0 0.0 0.03 0.33 0.33 93 1008.8
20260502211824 10 0 0.0 0.0 0.08 0.33 0.33 91 1008.8
20260502210903 10 0 0.0 0.0 0.08 0.33 0.33 91 1008.8
20260502210003 10 0 0.0 0.0 0.08 0.33 0.33 90 1008.9
20260502205424 10 292 0.0 1.6 0.08 0.33 0.33 89 1008.9
20260502204503 10 292 0.0 1.6 0.08 0.33 0.33 89 1008.9
20260502203603 10 292 0.0 3.2 0.08 0.33 0.33 87 1009.0
20260502202703 10 283 1.6 9.7 0.05 0.30 0.30 84 1009.0
20260502201803 11 302 3.2 17.7 0.00 0.25 0.25 81 1008.9
20260502200903 12 279 4.8 17.7 0.00 0.25 0.25 77 1008.9
20260502200003 13 251 0.0 12.9 0.00 0.25 0.25 68 1008.6
20260502195424 13 177 0.0 4.8 0.00 0.25 0.25 67 1008.6
20260502194524 13 147 0.0 4.8 0.00 0.25 0.25 66 1008.6
20260502193624 13 143 1.6 8.0 0.00 0.25 0.25 69 1008.9
20260502192703 13 180 3.2 14.5 0.00 0.25 0.25 66 1008.9
20260502191824 12 171 0.0 3.2 0.00 0.25 0.25 71 1009.2
20260502190903 12 169 1.6 11.3 0.00 0.25 0.25 72 1009.2
20260502190004 12 186 3.2 14.5 0.00 0.25 0.25 70 1009.2
20260502185403 12 202 3.2 14.5 0.00 0.25 0.25 67 1009.2
20260502184503 12 168 1.6 12.9 0.00 0.25 0.25 70 1009.3
20260502183603 13 211 0.0 8.0 0.00 0.25 0.25 66 1009.3
20260502182703 12 167 1.6 9.7 0.00 0.25 0.25 67 1009.3
20260502181803 12 173 1.6 12.9 0.00 0.25 0.25 68 1009.5
20260502180903 12 162 3.2 12.9 0.00 0.25 0.25 68 1009.5
20260502163603 11 191 1.6 11.3 0.00 0.23 0.23 74 1010.0
20260502162703 11 165 1.6 11.3 0.00 0.23 0.23 69 1010.0
20260502161803 11 157 1.6 16.1 0.00 0.23 0.23 75 1010.1
20260502160903 11 157 0.0 16.1 0.00 0.23 0.23 79 1010.1
20260502151803 11 189 0.0 1.6 0.00 0.23 0.23 88 1010.5
20260502150924 10 339 0.0 8.0 0.00 0.23 0.23 91 1010.4
20260502123603 8 221 0.0 1.6 0.05 0.05 0.05 88 1011.6
20260502122703 8 219 0.0 1.6 0.00 0.00 0.00 86 1011.6
20260502121803 8 224 1.6 9.7 0.00 0.00 0.00 84 1011.5
20260502120924 8 227 1.6 9.7 0.00 0.00 0.00 86 1011.5
20260502115403 8 196 0.0 1.6 0.00 0.00 0.00 87 1011.2
20260502114503 8 200 0.0 1.6 0.00 0.00 0.00 86 1011.0
20260502113603 8 310 0.0 1.6 0.00 0.00 0.00 86 1010.6
20260502112703 8 314 0.0 1.6 0.00 0.00 0.00 86 1010.4
20260502111803 8 303 0.0 1.6 0.00 0.00 0.00 86 1010.3
20260502110903 7 201 1.6 9.7 0.00 0.00 0.00 85 1010.7
20260502110003 7 215 0.0 1.6 0.00 0.00 0.00 86 1010.8
20260502104503 7 255 0.0 1.6 0.00 0.00 0.00 87 1010.4
20260502103603 7 214 0.0 1.6 0.00 0.00 0.00 86 1010.3
20260502102703 7 221 0.0 1.6 0.00 0.00 0.00 86 1010.4
20260502101803 7 239 0.0 1.6 0.00 0.00 0.00 85 1010.2
20260502100924 7 203 0.0 3.2 0.00 0.00 0.00 84 1010.2
20260502090906 7 222 0.0 4.8 0.00 0.00 0.00 85 1010.2
20260502070903 8 271 0.0 1.6 0.00 0.00 0.00 77 1010.1
20260502070003 8 271 0.0 1.6 0.00 0.00 0.00 76 1010.1
20260502065403 8 271 0.0 1.6 0.00 0.00 0.00 77 1010.1
20260502064504 9 227 1.6 11.3 0.00 0.00 0.00 75 1010.1
20260502063603 8 229 1.6 11.3 0.00 0.00 0.00 75 1010.3
20260502062703 8 224 0.0 6.4 0.00 0.00 0.00 75 1010.4
20260502060903 8 195 1.6 9.7 0.00 0.00 0.00 74 1010.3
20260502060003 8 198 1.6 11.3 0.00 0.00 0.00 74 1010.3
20260502055404 8 204 1.6 11.3 0.00 0.00 0.00 74 1010.3
20260502054503 8 229 1.6 6.4 0.00 0.00 0.00 74 1010.3
20260502053603 8 236 1.6 9.7 0.00 0.00 0.00 74 1010.3
20260502052703 8 226 0.0 8.0 0.00 0.00 0.00 74 1010.3
20260502051803 8 222 0.0 8.0 0.00 0.00 0.00 75 1010.3
20260502050924 8 211 0.0 6.4 0.00 0.00 0.00 75 1010.4
20260502050003 7 228 0.0 4.8 0.00 0.00 0.00 75 1010.4
20260502045403 7 228 0.0 1.6 0.00 0.00 0.00 75 1010.4
20260502044503 7 196 0.0 4.8 0.00 0.00 0.00 74 1010.4
20260502043603 7 205 0.0 1.6 0.00 0.00 0.00 74 1010.4
20260502042703 7 225 0.0 6.4 0.00 0.00 0.00 74 1010.5
20260502041803 8 259 0.0 1.6 0.00 0.00 0.00 75 1010.5
20260502040903 8 0 0.0 0.0 0.00 0.00 0.00 73 1010.5
20260502040004 8 259 0.0 1.6 0.00 0.00 0.00 74 1010.6
20260502035403 8 259 0.0 1.6 0.00 0.00 0.00 72 1010.6
20260502034503 8 238 0.0 3.2 0.00 0.00 0.00 70 1010.6
20260502033603 8 234 0.0 3.2 0.00 0.00 0.00 72 1010.6
20260502032703 8 243 0.0 1.6 0.00 0.00 0.00 69 1010.5
20260502031803 8 284 0.0 1.6 0.00 0.00 0.00 70 1010.7
20260502030903 8 217 0.0 3.2 0.00 0.00 0.00 69 1010.7
20260502030003 8 233 0.0 9.7 0.00 0.00 0.00 67 1010.6
20260502025403 8 233 0.0 8.0 0.00 0.00 0.00 69 1010.6
20260502024503 8 222 0.0 1.6 0.00 0.00 0.00 68 1010.4
20260502023603 8 223 0.0 1.6 0.00 0.00 0.00 69 1010.5
20260502022724 7 215 1.6 8.0 0.00 0.00 0.00 69 1010.6
20260502021804 7 214 1.6 9.7 0.00 0.00 0.00 68 1010.6
20260502020903 6 222 0.0 4.8 0.00 0.00 0.00 69 1010.6
20260502020003 7 0 0.0 0.0 0.00 0.00 0.00 70 1010.3
20260502015403 7 0 0.0 0.0 0.00 0.00 0.00 70 1010.3
20260502014503 7 0 0.0 0.0 0.00 0.00 0.00 69 1010.2
20260502013624 7 0 0.0 0.0 0.00 0.00 0.00 68 1010.1
20260502012703 7 0 0.0 0.0 0.00 0.00 0.00 66 1010.1
20260502011803 8 0 0.0 0.0 0.00 0.00 0.00 64 1010.1
20260502010903 8 0 0.0 0.0 0.00 0.00 0.00 65 1010.0
20260502010024 8 0 0.0 0.0 0.00 0.00 0.00 64 1009.9
20260502005403 9 0 0.0 0.0 0.00 0.00 0.00 63 1009.8
20260502004503 9 0 0.0 0.0 0.00 0.00 0.00 60 1009.8
20260502003603 10 0 0.0 0.0 0.00 0.00 0.00 59 1009.8
20260502002703 10 0 0.0 0.0 0.00 0.00 0.00 58 1009.6
20260502001804 11 0 0.0 0.0 0.00 0.00 0.00 58 1009.4
20260502000903 11 0 0.0 0.0 0.00 0.00 0.00 54 1009.2
20260502000024 11 0 0.0 0.0 0.00 0.00 0.00 54 1009.1
20260501235403 12 0 0.0 0.0 0.00 0.00 0.00 53 1009.0
20260501234524 12 0 0.0 0.0 0.00 0.00 0.00 52 1008.9
20260501233603 13 0 0.0 0.0 0.00 0.00 0.00 49 1008.8
20260501232703 13 282 0.0 1.6 0.00 0.00 0.00 43 1008.6
20260501231803 14 269 0.0 3.2 0.00 0.03 0.00 43 1008.3
20260501230903 15 274 0.0 3.2 0.00 0.03 0.00 38 1008.3
20260501230003 15 276 0.0 8.0 0.00 0.03 0.00 37 1008.3
20260501225403 15 286 0.0 8.0 0.00 0.03 0.00 34 1008.2
20260501224503 15 330 1.6 12.9 0.00 0.03 0.00 33 1008.2
20260501223603 16 269 0.0 4.8 0.00 0.03 0.00 35 1008.1
20260501222703 16 229 1.6 9.7 0.00 0.03 0.00 32 1008.1
20260501221803 16 218 1.6 12.9 0.00 0.03 0.00 32 1008.0
20260501220903 17 248 0.0 11.3 0.00 0.03 0.00 30 1008.0
20260501220003 18 260 1.6 16.1 0.00 0.03 0.00 29 1008.0
20260501215403 18 288 3.2 16.1 0.00 0.03 0.00 30 1008.0